CW2640 Weather Reports


Display with metric or nautical units.
time (UTC)temp
F
wind
direction
speed
MPH
gust
MPH
rain 1hr
in
rain 24hr
in
rain mn
in
humidity
%
barometer
mb
20260509185738 71 80 0.0 0.0 0.00 0.00 0.00 81 1012.5
20260509182733 71 80 0.0 0.0 0.00 0.00 0.00 83 1012.9
20260509175732 70 80 0.0 0.0 0.00 0.00 0.00 85 1013.3
20260509172732 69 80 0.0 0.0 0.00 0.00 0.00 88 1013.4
20260509165729 68 80 0.0 0.0 0.00 0.00 0.00 87 1013.3
20260509162726 68 80 0.0 0.0 0.00 0.00 0.00 86 1013.5
20260509155724 67 80 0.0 0.0 0.00 0.00 0.00 87 1013.4
20260509152721 67 80 0.0 0.0 0.00 0.00 0.00 90 1013.9
20260509145716 67 80 0.0 0.0 0.00 0.00 0.00 88 1013.8
20260509142712 64 80 0.0 0.0 0.00 0.00 0.00 97 1014.1
20260509135710 62 80 0.0 0.0 0.00 0.00 0.00 99 1013.7
20260509132706 61 80 0.0 0.0 0.00 0.00 0.00 99 1013.2
20260509125703 60 80 0.0 0.0 0.00 0.00 0.00 99 1012.8
20260509122702 60 80 0.0 0.0 0.00 0.00 0.00 99 1013.1
20260509115658 59 80 0.0 0.0 0.00 0.00 0.00 99 1012.9
20260509112655 59 80 0.0 0.0 0.00 0.00 0.00 99 1012.7
20260509105655 58 80 0.0 0.0 0.00 0.00 0.00 99 1012.5
20260509102651 0 0.0 0.0 0.00 0.00 0.00 1012.3
20260509095649 58 80 0.0 0.0 0.00 0.00 0.00 99 1011.6
20260509092644 58 80 0.0 0.0 0.00 0.00 0.00 99 1011.3
20260509085640 58 80 0.0 0.0 0.00 0.00 0.00 99 1011.5
20260509082639 57 80 0.0 0.0 0.00 0.00 0.00 99 1012.1
20260509075636 57 80 0.0 0.0 0.00 0.00 0.00 99 1011.9
20260509072634 56 80 0.0 0.0 0.00 0.00 0.00 99 1012.6
20260509065631 55 80 0.0 0.0 0.00 0.00 0.00 99 1012.4
20260509062631 55 80 0.0 0.0 0.00 0.00 0.00 99 1012.2
20260509055629 55 80 0.0 0.0 0.00 0.00 0.00 99 1012.4
20260509052624 55 80 0.0 0.0 0.00 0.00 0.00 99 1012.3
20260509045619 55 80 0.0 0.0 0.00 0.00 0.00 99 1013.2
20260509042616 55 80 0.0 0.0 0.00 0.00 0.00 99 1013.2
20260509035615 56 80 0.0 0.0 0.00 0.00 0.00 99 1013.3
20260509032615 56 80 0.0 0.0 0.00 0.00 0.00 99 1012.9
20260509025610 57 87 0.0 0.0 0.00 0.00 0.00 99 1013.1
20260509022606 58 89 0.0 0.0 0.00 0.00 0.00 99 1013.3
20260509015603 58 95 0.0 0.0 0.00 0.00 0.00 99 1013.1
20260509012600 59 97 0.0 0.0 0.00 0.00 0.00 97 1013.8
20260509005600 60 99 0.0 0.0 0.00 0.00 0.00 95 1013.2
20260509002559 61 86 0.0 0.0 0.00 0.00 0.00 89 1013.3
20260508235559 63 118 0.0 0.0 0.00 0.00 0.00 84 1013.5
20260508232554 64 118 0.0 0.0 0.00 0.00 0.00 81 1013.8
20260508225554 64 118 0.0 0.0 0.00 0.00 0.00 79 1014.5
20260508222549 64 114 0.0 0.0 0.00 0.00 0.00 76 1014.4
20260508215547 65 114 0.0 0.0 0.00 0.00 0.00 75 1014.0
20260508212544 66 109 0.0 0.0 0.00 0.00 0.00 75 1014.5
20260508205542 68 108 0.0 0.0 0.00 0.00 0.00 72 1014.5
20260508202537 68 108 0.0 0.0 0.00 0.00 0.00 66 1014.2
20260508195535 69 98 0.0 0.0 0.00 0.00 0.00 65 1015.1
20260508192532 69 107 0.0 0.0 0.00 0.00 0.00 66 1015.1